Location: Asheville, NC
(35.6000°N, 82.5500°W)
Time: 20:40:57
(UTC-04:00)

Vanguard 2 - Pass Details

Date: 12 March 2018
Orbit: 553 x 2939 km, 32.9° (Epoch: 20 June)

Event Time Altitude Azimuth Distance (km) Brightness Sun altitude
Rises 09:31:27 0° 196° (SSW) 5,029 11.8 20.3°
Reaches altitude 10° 09:35:18 10° 183° (S) 4,398 11.7 21.0°
Maximum altitude 09:44:56 25° 134° (SE) 4,018 12.8 22.9°
Drops below altitude 10° 09:57:05 10° 88° (E) 5,678 13.2 25.1°
Sets 10:02:56 0° 78° (ENE) 6,790 13.1 26.2°
